Site:,North Braddock,Created:,Wed May  1 07:17:03 2024
,,SONICWS
,Time,MPH
2024-04-25 00:59,1714021140,3.6
2024-04-25 01:59,1714024740,3.9
2024-04-25 02:59,1714028340,3.5
2024-04-25 03:59,1714031940,4.0
2024-04-25 04:59,1714035540,3.6
2024-04-25 05:59,1714039140,2.5
2024-04-25 06:59,1714042740,1.8
2024-04-25 07:59,1714046340,1.7
2024-04-25 08:59,1714049940,2.1
2024-04-25 09:59,1714053540,3.1
2024-04-25 10:59,1714057140,2.4
2024-04-25 11:59,1714060740,2.6
2024-04-25 12:59,1714064340,2.9
2024-04-25 13:59,1714067940,4.0
2024-04-25 14:59,1714071540,3.7
2024-04-25 15:59,1714075140,2.5
2024-04-25 16:59,1714078740,3.4
2024-04-25 17:59,1714082340,3.2
2024-04-25 18:59,1714085940,2.2
2024-04-25 19:59,1714089540,1.6
2024-04-25 20:59,1714093140,2.1
2024-04-25 21:59,1714096740,1.1
2024-04-25 22:59,1714100340,1.2
2024-04-25 23:59,1714103940,1.0
2024-04-26 00:59,1714107540,.9
2024-04-26 01:59,1714111140,1.1
2024-04-26 02:59,1714114740,1.1
2024-04-26 03:59,1714118340,1.0
2024-04-26 04:59,1714121940,1.0
2024-04-26 05:59,1714125540,1.1
2024-04-26 06:59,1714129140,1.4
2024-04-26 07:59,1714132740,3.3
2024-04-26 08:59,1714136340,5.1
2024-04-26 09:59,1714139940,6.3
2024-04-26 10:59,1714143540,7.2
2024-04-26 11:59,1714147140,6.5
2024-04-26 12:59,1714150740,6.1
2024-04-26 13:59,1714154340,6.5
2024-04-26 14:59,1714157940,6.6
2024-04-26 15:59,1714161540,6.1
2024-04-26 16:59,1714165140,6.3
2024-04-26 17:59,1714168740,6.1
2024-04-26 18:59,1714172340,5.6
2024-04-26 19:59,1714175940,5.7
2024-04-26 20:59,1714179540,4.8
2024-04-26 21:59,1714183140,5.3
2024-04-26 22:59,1714186740,4.9
2024-04-26 23:59,1714190340,4.9
2024-04-27 00:59,1714193940,5.1
2024-04-27 01:59,1714197540,4.7
2024-04-27 02:59,1714201140,4.4
2024-04-27 03:59,1714204740,4.1
2024-04-27 04:59,1714208340,5.8
2024-04-27 05:59,1714211940,5.3
2024-04-27 06:59,1714215540,4.8
2024-04-27 07:59,1714219140,4.7
2024-04-27 08:59,1714222740,3.7
2024-04-27 09:59,1714226340,4.5
2024-04-27 10:59,1714229940,6.6
2024-04-27 11:59,1714233540,5.7
2024-04-27 12:59,1714237140,5.9
2024-04-27 13:59,1714240740,6.1
2024-04-27 14:59,1714244340,4.5
2024-04-27 15:59,1714247940,3.5
2024-04-27 16:59,1714251540,2.6
2024-04-27 17:59,1714255140,3.1
2024-04-27 18:59,1714258740,4.4
2024-04-27 19:59,1714262340,3.9
2024-04-27 20:59,1714265940,2.8
2024-04-27 21:59,1714269540,2.9
2024-04-27 22:59,1714273140,2.4
2024-04-27 23:59,1714276740,2.6
2024-04-28 00:59,1714280340,2.0
2024-04-28 01:59,1714283940,3.6
2024-04-28 02:59,1714287540,2.9
2024-04-28 03:59,1714291140,2.7
2024-04-28 04:59,1714294740,4.0
2024-04-28 05:59,1714298340,3.4
2024-04-28 06:59,1714301940,3.6
2024-04-28 07:59,1714305540,4.5
2024-04-28 08:59,1714309140,5.9
2024-04-28 09:59,1714312740,6.9
2024-04-28 10:59,1714316340,5.9
2024-04-28 11:59,1714319940,7.0
2024-04-28 12:59,1714323540,6.8
2024-04-28 13:59,1714327140,5.9
2024-04-28 14:59,1714330740,5.7
2024-04-28 15:59,1714334340,6.0
2024-04-28 16:59,1714337940,5.6
2024-04-28 17:59,1714341540,5.8
2024-04-28 18:59,1714345140,3.8
2024-04-28 19:59,1714348740,2.7
2024-04-28 20:59,1714352340,2.7
2024-04-28 21:59,1714355940,1.7
2024-04-28 22:59,1714359540,.7
2024-04-28 23:59,1714363140,.8
2024-04-29 00:59,1714366740,2.6
2024-04-29 01:59,1714370340,1.2
2024-04-29 02:59,1714373940,1.2
2024-04-29 03:59,1714377540,.8
2024-04-29 04:59,1714381140,3.2
2024-04-29 05:59,1714384740,2.3
2024-04-29 06:59,1714388340,3.3
2024-04-29 07:59,1714391940,3.2
2024-04-29 08:59,1714395540,3.1
2024-04-29 09:59,1714399140,5.9
2024-04-29 10:59,1714402740,6.3
2024-04-29 11:59,1714406340,4.8
2024-04-29 12:59,1714409940,5.1
2024-04-29 13:59,1714413540,5.4
2024-04-29 14:59,1714417140,4.9
2024-04-29 15:59,1714420740,5.5
2024-04-29 16:59,1714424340,4.7
2024-04-29 17:59,1714427940,3.9
2024-04-29 18:59,1714431540,3.0
2024-04-29 19:59,1714435140,1.7
2024-04-29 20:59,1714438740,1.1
2024-04-29 21:59,1714442340,.6
2024-04-29 22:59,1714445940,.7
2024-04-29 23:59,1714449540,.8
2024-04-30 00:59,1714453140,2.3
2024-04-30 01:59,1714456740,.7
2024-04-30 02:59,1714460340,1.8
2024-04-30 03:59,1714463940,1.2
2024-04-30 04:59,1714467540,.9
2024-04-30 05:59,1714471140,1.4
2024-04-30 06:59,1714474740,1.0
2024-04-30 07:59,1714478340,1.4
2024-04-30 08:59,1714481940,3.2
2024-04-30 09:59,1714485540,2.9
2024-04-30 10:59,1714489140,4.1
2024-04-30 11:59,1714492740,7.3
2024-04-30 12:59,1714496340,6.1
2024-04-30 13:59,1714499940,4.6
2024-04-30 14:59,1714503540,3.2
2024-04-30 15:59,1714507140,3.0
2024-04-30 16:59,1714510740,4.0
2024-04-30 17:59,1714514340,3.9
2024-04-30 18:59,1714517940,4.4
2024-04-30 19:59,1714521540,2.3
2024-04-30 20:59,1714525140,2.0
2024-04-30 21:59,1714528740,3.0
2024-04-30 22:59,1714532340,3.6
2024-04-30 23:59,1714535940,2.5
2024-05-01 00:59,1714539540,.9
2024-05-01 01:59,1714543140,.8
2024-05-01 02:59,1714546740,.8
2024-05-01 03:59,1714550340,.8
2024-05-01 04:59,1714553940,1.8
2024-05-01 05:59,1714557540,2.3
